Flag Weather past 2 weeks in Freising, Bavaria, Germany

Now
36 °F

Low clouds.


Feels Like: 32 °F
Forecast: 33 / 42 °F
Wind: 6 mph from East

Location: Muenchen Flughafen

Current Time: Nov 27, 2014 at 10:49:54 AM

Latest Report: Nov 27, 2014 at 10:00 AM


Visibility: 5 mi

Pressure: 29.92 "Hg

Humidity: 88%

Dew point: 33 °F

Location of FreisingLocation

Historic Weather in Freising — Graph

°F

Freising temperature yesterday

Maximum temperature yesterday: 38 °F (at 12:00 AM)
Minimum temperature yesterday: 37 °F (at 8:00 AM)
Average temperature yesterday: 38 °F

Past Weeks' High & Low Weather Summary

 TemperatureHumidityPressure
High54 °F (Nov 12, 12:00 PM)100% (Nov 12, 9:00 AM)30.36 "Hg (Nov 12, 9:00 AM)
Low31 °F (Nov 17, 5:00 AM)66% (Nov 16, 3:00 PM)29.47 "Hg (Nov 16, 12:00 AM)
Average42 °F93%30.01 "Hg
* Reported Nov 12 9:00 AM — Nov 27 9:00 AM, Freising, Weather by CustomWeather, © 2014

Note: Actual official high and low records may vary slightly from our data, if they occured in-between our weather recording intervals... More about our weather records

Advertising

Freising weather history for previous 24 hours

 ConditionsComfort  
Time TempWeatherWind HumidityBarometerVisibility
9:00 AM
Nov 27
36 °FFog.6 mph89%29.92 "Hg4 mi
8:00 AM36 °FFog.3 mph89%29.93 "Hg4 mi
7:00 AM36 °FFog.3 mph90%29.93 "Hg4 mi
6:00 AM36 °FFog.5 mph91%29.93 "Hg4 mi
5:00 AM36 °FFog.2 mph92%29.94 "Hg3 mi
4:00 AM36 °FFog.5 mph95%29.96 "Hg2 mi
3:00 AM36 °FFog.3 mph95%29.97 "Hg2 mi
2:00 AM37 °FFog.2 mph93%29.98 "Hg3 mi
1:00 AM37 °FFog.3 mph92%29.99 "Hg3 mi
12:00 AM38 °FFog.3 mph91%30.00 "Hg4 mi
11:00 PM
Nov 26
38 °FFog.5 mph90%30.01 "Hg4 mi
10:00 PM38 °FFog.3 mph89%30.01 "Hg4 mi
9:00 PM38 °FOvercast.3 mph88%30.03 "Hg5 mi
8:00 PM38 °FOvercast.3 mph87%30.03 "Hg5 mi
7:00 PM38 °FLow clouds.5 mph88%30.03 "Hg5 mi
6:00 PM38 °FFog.5 mph89%30.05 "Hg4 mi
5:00 PM37 °FFog.5 mph89%30.05 "Hg3 mi
4:00 PM38 °FLow clouds.6 mph90%30.06 "Hg3 mi
3:00 PM38 °FFog.6 mph88%30.06 "Hg4 mi
2:00 PM38 °FFog.6 mph87%30.07 "Hg4 mi
1:00 PM38 °FFog.6 mph88%30.09 "Hg4 mi
12:00 PM38 °FFog.6 mph89%30.10 "Hg4 mi
11:00 AM37 °FFog.7 mph89%30.11 "Hg4 mi
10:00 AM37 °FFog.7 mph89%30.12 "Hg4 mi
Weather by CustomWeather, © 2014

See weather overviewHow to use our weather pages